星链-34591 (STARLINK-34591)

导读

STARLINK-34591是美国SpaceX公司星链(Starlink)星座的卫星,于2025年7月2日在美国发射升空。星链项目旨在构建全球覆盖的低轨卫星互联网系统,该卫星属于第二代星链组网卫星,运行在近地轨道。 它配备相控阵天线,支持激光星间通信技术,可提供全球宽带互联网接入服务,还能支撑手机直连业务,助力星链星座进一步完善全球覆盖能力,增强系统通信稳定性与服务容量。

基本信息
目录编号:
64734
目录名称:
STARLINK-34591
国际标识:
2025-144L
轨道中心:
EARTH
卫星名称:
星链-34591
卫星全名:
星链-34591 (STARLINK-34591)
卫星状态:
在轨 (已飞行429 天)
发射日期:
2025-07-02 UTC
国别 :
美国 (US)
星等 :
--
轨道信息
数据来源 国际轨道数据 AOE轨道数据
星历时间 2026-09-03T03:15:14+0800
1天前
查看轨道信息
2026-09-02T12:00:00+0800
2天前
查看轨道信息
半长轴 6840.809km 6840.856km
偏心率 0.0001255 0.0001267
轨道倾角 53.159° 53.157°
近地点辐角 79.275° 77.607°
升交点赤经 76.595° 79.563°
平近点角 280.839° 9.709°
近地点 461.813km 461.852km
远地点 463.531km 463.586km
周期 93.847分钟 93.848分钟
每日圈数 15.344106 15.34395
详细信息
固有亮度:
5
最大亮度:
2.5
卫星平台:
Starlink V1.0
覆盖范围:
全球
运营商:
太空探索技术公司
运营商所在国:
美国
制造商(研发单位):
太空探索技术公司
制造商所在国:
美国
使用方式:
暂无
卫星简介
Starlink 计划是 SpaceX 推出的全球卫星互联网项目,通过发射低轨道卫星,为全球尤其是偏远地区提供高速、低延迟的互联网服务。自 2019 年起,Starlink 已部署数千颗卫星,旨在缩小全球数字鸿沟,推动互联网普及。该项目还为军事、航空等行业提供通信支持,带来广泛经济效益。
2D轨道图
3D轨道图
轨道高度分析图
轨道倾角分析图
轨道综合分析图
查看轨道综合分析图
交会数据列表
事件ID 空间交会对象 最接近时刻(TCA) 交会距离 交会风险概率(CRP) 交会风险指数(CRI) 操作
CDM_260904-113504-941606-473421
2026-09-04T
11:35:58+0000
0.400 km
远距离
2.132735E-4 高风险 0.82
CDM_260904-051404-972706-473421
2026-09-04T
05:14:50+0000
0.311 km
远距离
1.189584E-4 高风险 0.77
CDM_260904-012604-941606-473421
2026-09-04T
01:26:19+0000
0.574 km
远距离
9.005391E-5 中风险 0.74
CDM_260904-060104-972706-473421
2026-09-04T
06:01:43+0000
0.460 km
远距离
4.335829E-5 中风险 0.68
CDM_260903-235204-941606-473421
2026-09-03T
23:52:32+0000
1.998 km
极远距离
1.765502E-6 低风险 0.4
CDM_260903-233904-750506-473422
HAWK-2A (47505)
2026-09-03T
23:39:08+0000
2.452 km
极远距离
1.762722E-6 低风险 0.4
CDM_260903-152405-110606-473421
2026-09-03T
15:24:57+0000
2.776 km
极远距离
1.259711E-6 低风险 0.37
CDM_260904-130904-941606-473422
2026-09-04T
13:09:46+0000
2.783 km
极远距离
9.466151E-7 极低风险 0.35
CDM_260903-155805-082306-473421
2026-09-03T
15:58:32+0000
2.922 km
极远距离
3.491369E-7 极低风险 0.26
CDM_260904-034104-972706-473421
2026-09-04T
03:41:02+0000
2.814 km
极远距离
2.986197E-7 极低风险 0.25